Location: Drocourt
(49.0571°N, 1.7669°E)
Time: 23:51:14
(UTC+00:00)

SR - Pass Details

Date: 18 April 2024
Orbit: 579 x 859 km, 66.7° (Epoch: 25 May)

Event Time Altitude Azimuth Distance (km) Brightness Sun altitude
Rises 04:56:14 0° 276° (W) 3,271 ? -0.7°
Reaches altitude 10° 04:59:45 10° 299° (WNW) 2,284 ? -0.1°
Maximum altitude 05:02:47 15° 335° (NNW) 1,888 ? 0.4°
Drops below altitude 10° 05:05:42 10° 11° (N) 2,177 ? 0.8°
Sets 05:08:56 0° 35° (NE) 3,032 ? 1.3°
